Location: Mesa Vista Observatory
(35.5777°N, 105.6987°W)
Time: 07:16:30
(UTC-06:00)

A-11 Canister half - All Passes

Search period start: 26 September 2020 00:00
Search period end: 06 October 2020 00:00
Orbit: 1527 x 1682 km, 47.3° (Epoch: 25 September)

Date Brightness Start Highest point End Pass type
(mag) Time Alt. Az. Time Alt. Az. Time Alt. Az.
26 Sep - 02:00:19 10° W 02:09:12 45° NNW 02:18:20 10° ENE visible
26 Sep - 04:07:05 10° WNW 04:16:10 46° NNE 04:25:30 10° E visible
26 Sep - 06:12:25 10° NW 06:22:10 89° NE 06:32:13 10° SE visible
26 Sep - 08:18:28 10° WNW 08:26:31 30° SW 08:34:45 10° S daylight
26 Sep - 21:30:09 10° S 21:37:29 27° SE 21:44:52 10° ENE visible
26 Sep - 23:32:16 10° SW 23:41:35 90° SSW 23:51:06 10° NE visible
27 Sep - 01:38:35 10° W 01:47:29 45° NNW 01:56:38 10° ENE visible
27 Sep - 03:45:24 10° WNW 03:54:25 45° NNE 04:03:42 10° E visible
27 Sep - 05:50:47 10° NW 06:00:30 86° NE 06:10:31 10° SE visible
27 Sep - 07:56:41 10° WNW 08:04:54 32° SW 08:13:20 10° S daylight
27 Sep - 21:08:49 10° S 21:15:55 25° SE 21:23:03 10° ENE visible
27 Sep - 23:10:39 10° SW 23:19:57 87° SE 23:29:27 10° NE visible
28 Sep - 01:16:51 10° W 01:25:46 46° NNW 01:34:54 10° ENE visible
28 Sep - 03:23:43 10° WNW 03:32:41 44° NNE 03:41:55 10° E visible
28 Sep - 05:29:07 10° NW 05:38:49 83° NNE 05:48:49 10° ESE visible
28 Sep - 07:34:55 10° WNW 07:43:18 33° SW 07:51:52 10° S daylight
28 Sep - 20:47:30 10° S 20:54:21 23° SE 21:01:12 10° ENE visible
28 Sep - 22:49:01 10° SW 22:58:19 83° SE 23:07:47 10° ENE visible
29 Sep - 00:55:08 10° W 01:04:02 47° NNW 01:13:12 10° ENE visible
29 Sep - 03:02:02 10° WNW 03:10:57 43° N 03:20:07 10° E visible
29 Sep - 05:07:29 10° NW 05:17:09 80° NNE 05:27:07 10° ESE visible
29 Sep - 07:13:10 10° WNW 07:21:41 35° SW 07:30:25 10° SSE daylight
29 Sep - 20:26:13 10° S 20:32:47 22° SE 20:39:21 10° E visible
29 Sep - 22:27:25 10° SW 22:36:41 80° SE 22:46:07 10° ENE visible
30 Sep - 00:33:24 10° W 00:42:20 48° NNW 00:51:29 10° ENE visible
30 Sep - 02:40:21 10° WNW 02:49:13 43° N 02:58:20 10° ENE visible
30 Sep - 04:45:51 10° NW 04:55:28 77° NNE 05:05:24 10° ESE visible
30 Sep - 06:51:26 10° WNW 07:00:04 38° SW 07:08:57 10° SSE daylight
30 Sep - 20:04:58 10° SSE 20:11:13 20° SE 20:17:28 10° E visible
30 Sep - 22:05:49 10° SW 22:15:04 77° SE 22:24:26 10° ENE visible
01 Oct - 00:11:39 10° W 00:20:36 49° NNW 00:29:46 10° NE visible
01 Oct - 02:18:39 10° WNW 02:27:29 42° N 02:36:33 10° ENE visible
01 Oct - 04:24:12 10° NW 04:33:47 74° NNE 04:43:40 10° ESE visible
01 Oct - 06:29:43 10° WNW 06:38:27 40° SW 06:47:27 10° SSE visible
01 Oct - 19:43:46 10° SSE 19:49:39 19° SE 19:55:33 10° E visible
01 Oct - 21:44:12 10° SW 21:53:27 73° SE 22:02:46 10° ENE visible
01 Oct - 23:49:56 10° W 23:58:54 50° NNW 00:08:05 10° NE visible
02 Oct - 01:56:58 10° WNW 02:05:45 42° N 02:14:45 10° ENE visible
02 Oct - 04:02:34 10° NW 04:12:06 72° NNE 04:21:57 10° ESE visible
02 Oct - 06:08:00 10° WNW 06:16:51 42° SW 06:25:56 10° SSE visible
02 Oct - 19:22:35 10° SSE 19:28:06 17° SE 19:33:35 10° E visible
02 Oct - 21:22:37 10° SW 21:31:49 70° SE 21:41:06 10° ENE visible
02 Oct - 23:28:12 10° W 23:37:12 51° NNW 23:46:23 10° NE visible
03 Oct - 01:35:15 10° WNW 01:44:00 41° N 01:52:58 10° ENE visible
03 Oct - 03:40:56 10° NW 03:50:25 69° NNE 04:00:12 10° ESE visible
03 Oct - 05:46:18 10° WNW 05:55:13 44° SW 06:04:25 10° SSE visible
03 Oct - 19:01:28 10° SSE 19:06:32 16° ESE 19:11:34 10° E visible
03 Oct - 21:01:03 10° SW 21:10:12 66° SE 21:19:25 10° ENE visible
03 Oct - 23:06:28 10° W 23:15:30 53° NNW 23:24:42 10° NE visible
04 Oct - 01:13:32 10° WNW 01:22:16 41° N 01:31:12 10° ENE visible
04 Oct - 03:19:17 10° NW 03:28:44 67° NNE 03:38:29 10° ESE visible
04 Oct - 05:24:36 10° WNW 05:33:36 47° SW 05:42:53 10° SSE visible
04 Oct - 18:40:26 10° SSE 18:44:58 15° ESE 18:49:29 10° E daylight
04 Oct - 20:39:28 10° SW 20:48:35 63° SE 20:57:45 10° ENE visible
04 Oct - 22:44:45 10° W 22:53:49 54° NNW 23:03:01 10° NE visible
05 Oct - 00:51:51 10° WNW 01:00:32 41° N 01:09:25 10° ENE visible
05 Oct - 02:57:38 10° NW 03:07:02 64° NNE 03:16:43 10° ESE visible
05 Oct - 05:02:54 10° WNW 05:11:59 49° SW 05:21:20 10° SSE visible
05 Oct - 18:19:29 10° SSE 18:23:25 13° ESE 18:27:19 10° E daylight
05 Oct - 20:17:54 10° SW 20:26:59 60° SE 20:36:05 10° ENE visible
05 Oct - 22:23:02 10° W 22:32:07 56° NNW 22:41:20 10° NE visible
